Zurück zum Katalog

GLOBALSTAR M042

AktivKommunikationLEO
NORAD 25679·PAYLOAD·🇺🇸 United States

Gestartet Apr 15, 1999 von Baikonur Cosmodrome

Loading…

Nächste Überflüge (nächste 24 Stunden)

TLE

AktuellSource: Space-Track

Epoche: Sep 14, 2026, 06:07 UTC

1 25679U 99019D   26257.25508977 -.00000083  00000-0  81861-4 0  9992
2 25679  51.9999 209.0809 0002772 154.8851 352.2712 12.22101841240775

Verfolge GLOBALSTAR M042 in Echtzeit mit AllMySat

Download on the App Store